San Angelo, TX

4:00 AM CDT on May 28, 2017 (GMT -0500)
San Angelo Regional-Mathis

Weather History for KSJT - May, 2013

Change the Weather History Date:

Saturday, May 11, 2013

  Actual Average Record
Temperature  
Mean Temperature 67 °F 73 °F  
Max Temperature 80 °F 86 °F 103 °F (1967)
Min Temperature 54 °F 60 °F 40 °F (1981)
Degree Days  
Heating Degree Days 0 0  
Month to date heating degree days 32 8  
Since 1 July heating degree days 1919 2314  
Cooling Degree Days 2 9  
Month to date cooling degree days 43 83  
Year to date cooling degree days 292 239  
Growing Degree Days 17 (Base 50)    
Moisture  
Dew Point 51 °F    
Average Humidity 61    
Maximum Humidity 93    
Minimum Humidity 28    
Precipitation  
Precipitation 0.00 in 0.08 in 1.54 in (1988)
Month to date precipitation 0.87 0.80  
Year to date precipitation 3.68 6.00  
Sea Level Pressure  
Sea Level Pressure 30.14 in    
Wind  
Wind Speed 8 mph (NE)    
Max Wind Speed 22 mph    
Max Gust Speed 25 mph    
Visibility 10 miles    
Events      
T = Trace of Precipitation, MM = Missing Value Source: NWS Daily Summary

Daily Weather History Graph

Daily Weather History Graph

Search for Another Location

Airport or City:

Trip Planner

Search our weather history database for the weather conditions in past years. The results will help you decide how hot, cold, wet, or windy it might be!

Date:

Astronomy

May. 11, 2013 Rise Set
Actual Time 6:48 AM CDT 8:28 PM CDT
Civil Twilight 6:22 AM CDT 8:55 PM CDT
Nautical Twilight 5:50 AM CDT 9:26 PM CDT
Astronomical Twilight 5:17 AM CDT 10:00 PM CDT
Moon 7:59 AM CDT (5/11) 10:08 PM CDT (5/11)
Length of Visible Light 14h 32m
Length of Day
13h 40m
Waxing Crescent, 3% of the Moon is Illuminated
May 11
Waxing Crescent
May 17
First Quarter
May 24
Full
May 31
Last Quarter
Jun 8
New

Hourly Weather History & Observations

Time (CDT) Temp. Dew Point Humidity Pressure Visibility Wind Dir Wind Speed Gust Speed Precip Events Conditions
12:51 AM 60.1 °F 57.0 °F 90% 30.08 in 10.0 mi NNW 3.5 mph - N/A   Clear
1:51 AM 61.0 °F 57.0 °F 87% 30.06 in 10.0 mi North 4.6 mph - N/A   Clear
2:51 AM 59.0 °F 55.9 °F 90% 30.09 in 10.0 mi NW 5.8 mph - N/A   Clear
3:51 AM 59.0 °F 55.9 °F 90% 30.12 in 10.0 mi NNW 3.5 mph - N/A   Clear
4:51 AM 57.9 °F 55.0 °F 90% 30.13 in 10.0 mi North 3.5 mph - N/A   Clear
5:51 AM 55.0 °F 53.1 °F 93% 30.14 in 8.0 mi SSW 4.6 mph - N/A   Clear
6:51 AM 54.0 °F 52.0 °F 93% 30.16 in 7.0 mi Calm Calm - N/A   Clear
7:51 AM 57.9 °F 55.9 °F 93% 30.17 in 7.0 mi NW 5.8 mph - N/A   Clear
8:51 AM 63.0 °F 55.0 °F 75% 30.18 in 10.0 mi North 9.2 mph - N/A   Mostly Cloudy
9:51 AM 66.0 °F 55.0 °F 68% 30.18 in 10.0 mi NE 9.2 mph - N/A   Clear
10:51 AM 69.1 °F 53.1 °F 57% 30.19 in 10.0 mi NE 12.7 mph - N/A   Clear
11:51 AM 71.1 °F 52.0 °F 51% 30.18 in 10.0 mi NNE 13.8 mph - N/A   Clear
12:51 PM 73.0 °F 51.1 °F 46% 30.17 in 10.0 mi ENE 15.0 mph - N/A   Clear
1:51 PM 75.9 °F 50.0 °F 40% 30.15 in 10.0 mi NNE 13.8 mph 24.2 mph N/A   Clear
2:51 PM 77.0 °F 46.0 °F 33% 30.14 in 10.0 mi ENE 15.0 mph 23.0 mph N/A   Partly Cloudy
3:51 PM 78.1 °F 44.1 °F 30% 30.12 in 10.0 mi ENE 8.1 mph 21.9 mph N/A   Clear
4:51 PM 78.1 °F 43.0 °F 29% 30.10 in 10.0 mi NE 15.0 mph - N/A   Partly Cloudy
5:51 PM 79.0 °F 44.1 °F 29% 30.10 in 10.0 mi NE 13.8 mph 18.4 mph N/A   Scattered Clouds
6:51 PM 78.1 °F 44.1 °F 30% 30.11 in 10.0 mi ENE 9.2 mph - N/A   Scattered Clouds
7:51 PM 75.0 °F 46.0 °F 36% 30.11 in 10.0 mi ENE 5.8 mph - N/A   Clear
8:51 PM 71.1 °F 50.0 °F 47% 30.14 in 10.0 mi East 4.6 mph - N/A   Clear
9:51 PM 69.1 °F 48.9 °F 49% 30.16 in 10.0 mi SE 3.5 mph - N/A   Clear
10:51 PM 66.0 °F 51.1 °F 59% 30.17 in 10.0 mi SE 3.5 mph - N/A   Clear
11:51 PM 63.0 °F 52.0 °F 67% 30.17 in 10.0 mi Calm Calm - N/A   Clear